Bedford, MA

8:52 PM EDT on March 27, 2017 (GMT -0400)
Hanscom

Weather History for KBED - November, 2011

Change the Weather History Date:

Sunday, November 6, 2011

  Actual Average Record
Temperature  
Mean Temperature 39 °F -  
Max Temperature 57 °F 52 °F 75 °F (1959)
Min Temperature 21 °F 34 °F 21 °F (1967)
Degree Days  
Heating Degree Days 26    
Moisture  
Dew Point 24 °F    
Average Humidity 64    
Maximum Humidity 96    
Minimum Humidity 23    
Precipitation  
Precipitation 0.00 in - - ()
Sea Level Pressure  
Sea Level Pressure 30.46 in    
Wind  
Wind Speed 3 mph (SW)    
Max Wind Speed 13 mph    
Max Gust Speed 20 mph    
Visibility 10 miles    
Events      
Averages and records for this station are not official NWS values.
T = Trace of Precipitation, MM = Missing Value Source: NWS Daily Summary

Daily Weather History Graph

Daily Weather History Graph

Search for Another Location

Airport or City:

Trip Planner

Search our weather history database for the weather conditions in past years. The results will help you decide how hot, cold, wet, or windy it might be!

Date:

Astronomy

Nov. 06, 2011 Rise Set
Actual Time 6:24 AM EST 4:32 PM EST
Civil Twilight 5:54 AM EST 5:02 PM EST
Nautical Twilight 5:21 AM EST 5:35 PM EST
Astronomical Twilight 4:48 AM EST 6:08 PM EST
Moon 2:18 PM EST (11/6) 2:23 AM EST (11/6)
Length of Visible Light 11h 07m
Length of Day
10h 07m
Waxing Gibbous, 85% of the Moon is Illuminated
Nov 6
Waxing Gibbous
Nov 10
Full
Nov 18
Last Quarter
Nov 25
New
Dec 2
First Quarter

Hourly Weather History & Observations

Time (EST) Temp. Windchill Dew Point Humidity Pressure Visibility Wind Dir Wind Speed Gust Speed Precip Events Conditions
12:56 AM 26.1 °F - 24.1 °F 92% 30.52 in 10.0 mi Calm Calm - N/A   Clear
1:56 AM 25.0 °F - 24.1 °F 96% 30.52 in 10.0 mi Calm Calm - N/A   Clear
1:56 AM 25.0 °F - 23.0 °F 92% 30.52 in 10.0 mi Calm Calm - N/A   Clear
2:56 AM 24.1 °F - 21.9 °F 91% 30.51 in 10.0 mi Calm Calm - N/A   Clear
3:56 AM 21.9 °F - 21.0 °F 96% 30.52 in 10.0 mi Calm Calm - N/A   Clear
4:56 AM 23.0 °F - 19.9 °F 88% 30.53 in 10.0 mi Calm Calm - N/A   Clear
5:56 AM 21.9 °F - 19.9 °F 92% 30.53 in 10.0 mi Calm Calm - N/A   Clear
6:56 AM 21.9 °F - 21.0 °F 96% 30.53 in 10.0 mi Calm Calm - N/A   Clear
7:56 AM 30.0 °F - 28.0 °F 92% 30.54 in 10.0 mi Calm Calm - N/A   Clear
8:56 AM 42.1 °F 37.1 °F 27.0 °F 55% 30.53 in 10.0 mi SW 8.1 mph - N/A   Clear
9:56 AM 46.9 °F - 25.0 °F 42% 30.53 in 10.0 mi SW 6.9 mph - N/A   Clear
10:56 AM 52.0 °F - 23.0 °F 32% 30.50 in 10.0 mi SW 11.5 mph 17.3 mph N/A   Clear
11:56 AM 54.0 °F - 17.1 °F 23% 30.45 in 10.0 mi SW 12.7 mph 19.6 mph N/A   Clear
12:56 PM 55.9 °F - 18.0 °F 23% 30.43 in 10.0 mi SW 12.7 mph - N/A   Clear
1:56 PM 57.2 °F - 21.2 °F 25% 30.36 in 10.0 mi SW 8.1 mph 16.1 mph N/A   Clear
2:56 PM 57.0 °F - 19.9 °F 24% 30.40 in 10.0 mi SW 9.2 mph - N/A   Clear
4:56 PM 46.9 °F - 23.0 °F 39% 30.38 in 10.0 mi South 5.8 mph - N/A   Clear
5:56 PM 46.9 °F - 25.0 °F 42% 30.39 in 10.0 mi SSW 3.5 mph - N/A   Clear
6:56 PM 44.1 °F 40.1 °F 27.0 °F 51% 30.40 in 10.0 mi SSW 6.9 mph - N/A   Clear
7:56 PM 44.1 °F 40.1 °F 32.0 °F 63% 30.39 in 10.0 mi SSW 6.9 mph - N/A   Clear
8:56 PM 44.1 °F 38.1 °F 34.0 °F 68% 30.39 in 10.0 mi SW 11.5 mph - N/A   Clear
9:56 PM 41.0 °F 38.0 °F 34.0 °F 76% 30.38 in 10.0 mi SSW 4.6 mph - N/A   Clear
10:56 PM 39.2 °F 35.9 °F 33.8 °F 81% 30.32 in 10.0 mi SW 4.6 mph - N/A   Clear